Showing default

IRIS-F3, 62619

Orbit data source: Space-Track

IRIS-F3, 62619 is a payload satellite owned by NCKU (TW) in SSO that was launched on Tue, 14 Jan 2025 UTC via an FALCON 9 launch vehicle from the Air Force Western Test Range (AFWTR). Payload-class satellites include a variety of spacecraft equipped with specific instruments for various scientific and technological missions. These include communications satellites like Starlink; space stations such as the ISS; scientific satellites like the Hubble; Earth observation satellites from companies like Planet Labs, Umbra, and HawkEye 360; GPS; miniature CubeSats for education and research; and military/defense satellites.

Loading next visibility...
Identifier
62619, 2025-009L
Orbit
SSO
Country
Flag of TWTW / TWN
Related business
Manufacturer
NCKU
Mission
Operational Amateur Technology
Bus & Motor
CUBESAT 3U, Unknown motor
Mass
4 kg wet, 4 kg dry
Launch date (UTC)
2025-01-14 (2 years ago)
Launch vehicle
FALCON 9
Launch site
Air Force Western Test Range (AFWTR)
Object type
Payload
Rocket body
Debris
Shape & HBR
Box, 0.2 m
Radar Cross Section
0.035 m², Medium (>0.1 m² and < 1m²)

Expand to show TLE details & history
Last TLE update: 1 day ago

TLE from 1 day ago
0 IRIS-F3
1 62619U 25009L   26262.44286343  .00005858  00000-0  21524-3 0  9995
2 62619  97.3989 342.6021 0005977   5.7831 354.3477 15.28284971 93216
Epoch: 2026-09-19T10:37Z
TLE epoch observation values (Epoch: 2026-09-19T10:37:43.400Z)
Latitude
0.00003°
Longitude
-175.18007°
Altitude
479.96 km
Speed
7.628 km/s
True Right ascension
22h 50m 24s
True Declination
0° 00' 00"
Sunlit
Object was in full shadow at epoch
Visualization orbit readout
Latitude
Unknown
Longitude
Unknown
Altitude
Unknown
Speed
Unknown
Apparent Right ascension
Unknown
Apparent Declination
Unknown
Sunlit
N/A
Visualization observer readout
Local Sidereal Time
05:13:06
Azimuth
Unknown
Elevation
Unknown
Doppler factor
Unknown
Orbital elements
Apogee altitude
481.991 km
Perigee altitude
473.796 km
Semi-major axis
6,856.03 km
Eccentricity
0.0006
Inclination
97.3989°
RAAN
342.6021°
Arg. of periapsis
5.7831°
True anomaly
354.34095°
Mean anomaly
354.3477°
Eccentric anomaly
354.34433°
Mean motion
3.82326 °/min
Orbital period
94.16 mins
BSTAR
0.00021524
Loading maneuver chart data...
Computing Atmospheric mass density...
Loading historical data...
Loading historical data...
Loading historical data...
Loading historical data...
Loading historical data...
Loading historical data...
Loading historical data...

Documentation

Showing up to 5 results
|